Location: Newark
(45.5167°N, 11.1667°E)
Time: 11:48:51
(UTC+00:00)

Explorer 7 - Pass Details

Date: 18 December 2019
Orbit: 485 x 679 km, 50.3° (Epoch: 27 January)

Event Time Altitude Azimuth Distance (km) Brightness Sun altitude
Rises 15:29:09 0° 284° (WNW) 2,992 11.2 -0.3°
Reaches altitude 10° 15:31:33 10° 290° (WNW) 2,097 10.3 -0.6°
Maximum altitude 15:36:17 49° 6° (N) 876 7.6 -1.3°
Drops below altitude 10° 15:41:03 10° 81° (E) 2,116 9.2 -2.0°
Sets 15:43:29 0° 87° (E) 3,022 10.0 -2.4°
